Lid_Strength_Index
4 4 4 4 4 4 4 4 4 3 3 3 3 2 2 2 2 4 6 6 7 8 6 4 4 7 7 7 10 8 8 8 9 12 13 13 14 13 14 13 14 14 15 16 15 18 18 8 8 12 9 8 7 8
3 3 3 4 3 3 4 4 4 3 3 3 3 3 2 2 2 3 8 6 6 9 7 5 3 3 3 4 6 7 8 8 8 11 11 11 13 12 13 16 11 14 12 14 13 13 9 7 9 7 7 9 7 8
3 3 3 3 3 3 3 3 3 3 3 3 3 3 3 2 2 3 7 7 7 7 7 5 5 4 3 3 2 7 8 6 7 7 9 10 12 11 14 13 13 11 9 11 11 10 8 7 6 7 7 8 7 6
3 3 3 3 3 3 3 3 3 3 3 3 3 3 3 3 3 3 7 7 8 10 10 7 2 5 2 3 3 3 5 4 5 6 8 10 12 8 12 10 11 10 9 11 11 9 7 6 6 7 6 7 7 6
3 3 3 3 3 3 3 3 3 3 3 3 3 2 2 3 3 4 5 6 6 8 9 7 4 4 4 3 3 3 5 5 6 8 9 10 8 9 9 9 11 9 10 12 13 8 8 7 6 5 6 6 5 5
3 3 3 3 3 3 4 4 3 2 2 2 2 3 3 3 3 6 9 6 7 8 8 10 5 5 4 4 4 5 5 6 6 7 8 8 6 8 11 12 8 7 6 6 8 5 5 5 5 5 5 5 4 4
3 3 3 3 3 3 4 4 3 2 2 2 3 3 3 3 6 8 9 5 7 7 6 9 9 5 4 4 4 5 5 6 6 7 8 8 8 8 10 12 8 7 6 6 5 5 7 6 7 5 4 4 4 4
3 3 4 3 3 3 3 3 3 2 2 2 3 3 3 3 5 7 6 5 7 9 9 9 10 8 5 7 8 5 7 6 6 8 7 9 8 8 12 9 8 6 5 5 5 6 7 6 5 4 4 4 6 6
3 4 4 4 3 3 3 3 2 2 2 2 3 3 5 6 8 7 2 3 6 9 9 8 11 11 6 7 6 6 6 9 6 9 9 8 10 12 10 9 7 6 6 6 5 5 5 7 7 6 7 7 8 7
3 4 4 4 4 3 3 2 2 2 2 2 4 6 7 5 2 2 5 6 7 9 5 9 7 10 6 7 8 8 7 9 11 10 7 10 11 8 6 6 6 5 5 5 7 8 7 8 8 8 8 7 8 8
4 4 4 4 4 3 2 2 2 2 3 6 8 7 5 5 5 5 8 8 7 9 7 7 6 8 5 9 9 7 10 9 12 11 11 12 12 9 6 7 6 6 6 7 7 8 8 8 9 9 8 8 9 10
3 4 5 4 4 3 2 2 2 4 6 6 6 6 7 6 6 9 10 9 9 10 8 8 8 6 7 5 8 8 10 9 13 8 11 14 10 7 7 7 7 7 6 7 8 8 9 9 9 9 8 8 10 10
3 4 4 4 4 3 2 2 2 3 3 5 6 7 7 7 12 12 13 11 11 8 7 7 8 7 6 6 8 9 11 12 8 12 13 11 8 7 7 8 8 8 9 8 8 9 10 10 10 10 10 9 8 10
3 3 4 4 3 2 2 2 2 3 5 8 7 13 10 11 10 10 10 9 7 7 7 7 8 8 7 8 8 10 10 9 13 14 13 9 9 8 8 9 10 11 11 11 10 10 11 13 12 12 12 12 12 13
2 3 3 3 2 2 2 2 2 4 6 7 7 12 10 8 7 7 7 7 6 6 7 8 8 7 9 9 9 10 12 14 13 13 10 9 8 8 9 10 11 12 12 11 11 13 12 12 13 13 13 13 14 14
2 3 3 2 2 2 2 3 4 5 5 7 7 9 8 8 8 8 7 8 6 6 6 7 9 10 11 10 11 13 13 14 12 10 9 9 9 9 10 10 11 11 12 12 12 13 14 13 14 14 14 15 15 15
2 3 2 2 2 3 3 4 5 6 6 7 8 6 7 7 8 8 7 7 5 7 9 9 11 11 9 11 12 10 12 11 10 10 9 9 10 10 9 10 11 12 14 14 15 15 14 14 14 15 17 16 16 15
3 3 2 2 3 3 4 5 5 5 8 7 8 8 7 8 8 8 7 6 6 7 7 9 7 11 12 13 12 10 11 10 10 10 10 9 10 10 10 11 13 14 14 15 15 14 15 16 17 17 17 16 16 16
3 3 2 2 3 4 6 6 5 8 7 6 6 6 7 8 9 8 8 6 7 7 8 9 11 12 11 10 11 11 11 10 10 9 9 9 9 9 10 13 14 15 16 15 15 16 17 17 17 17 16 16 17 16
2 3 3 3 3 4 6 5 3 7 8 7 6 6 6 7 8 9 10 9 9 9 11 12 13 11 11 10 10 10 9 8 10 10 10 10 10 12 12 14 16 16 15 16 16 15 17 16 16 16 16 15 16 15
4 4 4 4 5 4 4 6 6 6 6 7 6 6 7 8 10 11 11 11 12 12 12 12 12 12 11 11 9 9 9 10 12 12 12 13 13 14 15 15 16 17 18 18 17 17 16 17 16 16 16 15 14 14
5 3 4 4 5 4 5 4 6 5 6 7 7 6 8 9 12 12 11 13 13 12 11 10 10 11 12 12 11 10 11 12 13 13 13 13 15 16 16 17 17 18 17 17 17 17 16 16 15 15 14 14 13 13
4 4 3 4 6 7 8 4 7 7 9 8 7 8 9 10 11 10 12 12 12 11 11 10 10 10 11 12 12 12 13 14 15 14 14 16 16 17 17 17 17 17 18 17 17 17 16 14 14 14 13 13 13 13
4 4 6 7 7 9 6 8 6 7 8 9 9 10 10 12 11 12 14 13 12 12 11 11 10 11 12 13 14 14 14 14 14 16 16 17 18 18 17 17 17 17 17 16 16 15 15 14 13 13 13 12 12 12
8 8 7 11 6 8 9 9 8 8 10 9 9 10 9 9 13 14 15 14 14 14 13 12 12 12 14 14 15 17 16 16 17 18 18 17 17 18 18 17 17 16 16 16 15 15 14 13 13 12 12 11 11 10
12 7 9 8 8 9 9 10 9 9 9 10 9 9 9 12 14 16 14 14 15 13 13 13 13 13 14 14 16 17 17 17 17 17 18 17 17 17 18 17 17 16 14 14 14 14 13 12 12 11 11 10 9 10
10 8 8 8 8 7 8 9 8 8 10 10 9 10 12 15 16 15 13 12 12 12 12 11 11 12 14 16 17 16 16 16 16 16 17 16 16 15 15 16 16 14 13 12 12 12 12 12 11 10 10 9 9 9
7 8 11 11 12 11 11 12 13 13 13 13 12 14 14 15 15 12 11 11 11 11 10 11 14 15 16 17 17 17 17 16 15 16 16 16 15 14 14 13 12 11 12 11 11 11 11 11 10 9 9 10 9 9
9 9 10 13 13 14 14 14 14 13 13 12 13 15 15 13 11 11 11 11 11 12 14 16 17 16 17 17 17 17 16 16 16 17 17 17 16 14 13 12 12 12 12 11 10 10 9 9 9 9 9 9 9 9
11 10 13 14 14 15 14 13 13 12 12 12 11 12 14 13 12 10 10 13 14 16 16 16 17 17 17 17 17 16 16 15 14 15 16 16 15 13 12 12 12 12 11 11 10 10 9 9 9 10 9 9 10 9
10 11 13 13 14 13 13 12 12 12 12 13 13 14 14 13 13 12 12 15 15 16 16 17 17 16 16 16 16 16 16 14 13 12 12 13 13 12 12 11 11 11 11 10 9 10 10 10 10 10 10 10 10 10
10 12 13 14 13 11 11 12 13 13 13 13 14 13 14 14 16 14 14 16 16 16 16 16 15 15 14 14 14 14 13 13 12 12 11 12 12 11 11 11 11 9 8 9 9 9 10 10 10 11 11 11 11 11
12 12 12 12 12 12 11 11 12 12 12 13 12 12 13 15 16 14 14 14 14 15 15 15 14 14 13 12 13 13 12 12 12 12 11 12 12 11 11 10 8 8 8 9 9 10 10 10 11 11 11 11 11 11